Orbital Elements at Epoch 2459000.5 (2020-May-31.0) TDB
Reference: JPL 8 (heliocentric ecliptic J2000)
Element | Value | Uncertainty (1-sigma) | Units |
e | .09237758462546806 | 7.7699e-08 | |
a | 3.15788110967411 | 5.3105e-08 | au |
q | 2.866163680228023 | 2.6648e-07 | au |
i | 9.408914515891594 | 8.2736e-06 | deg |
node | 342.1937177691035 | 3.615e-05 | deg |
peri | 10.32115426962458 | 5.2386e-05 | deg |
M | 220.1466340714868 | 4.0816e-05 | deg |
tp | 2459796.773957819714 (2022-Aug-05.27395782) | 0.00024597 | TDB |
period | 2049.708442209567 5.61 | 5.1704e-05 1.416e-07 | d yr |
n | .1756347354514105 | 4.4304e-09 | deg/d |
Q | 3.449598539120196 | 5.8011e-08 | au |
|
| | Orbit Determination Parameters
Additional Information
|